sat.trackr.live / text

‹ back to catalog

STARLINK-5500

NORAD 55634 · 2023-021G

PAYLOAD ACTIVE UNKNOWN

§ Identity

Operator
Country
US
Launch date
2023-02-17
Launch site
AFWTR
Launch vehicle
Mass (kg)
RCS (m²)

Purposes: comms

External: N2YO · Heavens-Above · Gunter

§ Orbital elements

Epoch: 2026-09-20T22:00:03.000096Z

Period
95.70 min
Inclination
70.0038°
Eccentricity
0.0003589
Mean motion
15.04764271 rev/d
Perigee alt
549.7 km
Apogee alt
554.7 km
Semi-major
6,930.4 km
B*
4.9332e-3
RAAN
72.1816°
Arg perigee
321.0574°
Mean anomaly
0.8845°
Rev number
576

§ Raw data

STARLINK-55001 55634U 23021G   26263.91670139  .00070307  00000+0  49332-2 0  99952 55634  70.0038  72.1816 0003589 321.0574   0.8845 15.04764271  5765

JSON: /api/v1/satellites/55634 · /tle

For live sub-satellite position, see the globe view (requires WebGL).

§ Visibility from observer

Set your observer location to see the next 7 days of passes ≥ 10°. The values pass through the URL so the page stays shareable.

No JS? Fill the form by hand. The geolocation button needs JavaScript.